Home > Time Zones > World Clock > Weather > Spain > Cadiz > Past weeks

Flag for Spain Weather past 2 weeks in Cadiz, Cádiz, Spain

Now
82 °F

Sunny.


Feels Like: 86 °F
Forecast: 69 / 91 °F
Wind: 2 mph from North

Location: Rota Airport

Current Time: Jul 5, 2015 at 10:19:18 PM

Latest Report: Jul 5, 2015 at 10:00 PM


Visibility: 10 mi

Pressure: 29.98 "Hg

Humidity: 66%

Dew point: 70 °F

Location of CadizLocation

Historic Weather in Cadiz — Graph

°F

Cadiz temperature yesterday

Maximum temperature yesterday: 88 °F (at 3:00 PM)
Minimum temperature yesterday: 68 °F (at 6:00 AM)
Average temperature yesterday: 78 °F

Past Weeks' High & Low Weather Summary

 TemperatureHumidityPressure
High102 °F (Jun 27, 5:00 PM)94% (Jun 29, 7:00 AM)30.12 "Hg (Jun 29, 7:00 AM)
Low61 °F (Jun 24, 7:00 AM)17% (Jun 27, 5:00 PM)29.95 "Hg (Jun 27, 7:00 PM)
Average76 °F66%30.04 "Hg
* Reported Jun 20 9:00 PM — Jul 5 9:00 PM, Cadiz, Weather by CustomWeather, © 2015

Note: Actual official high and low records may vary slightly from our data, if they occured in-between our weather recording intervals... More about our weather records

Advertising

Cadiz weather history for previous 24 hours

 ConditionsComfort  
Time TempWeatherWind HumidityBarometerVisibility
9:00 PM
Sun, Jul 5
84 °FPassing clouds.5 mph58%29.95 "HgN/A
8:00 PM88 °FPassing clouds.8 mph52%29.95 "HgN/A
7:00 PM90 °FPassing clouds.10 mph41%29.95 "HgN/A
6:00 PM91 °FPassing clouds.9 mph44%29.95 "HgN/A
5:00 PM93 °FPassing clouds.9 mph39%29.98 "HgN/A
4:00 PM90 °FPassing clouds.10 mph46%29.98 "HgN/A
3:00 PM86 °FPassing clouds.9 mph55%30.01 "HgN/A
2:00 PM84 °FPassing clouds.8 mph62%30.01 "HgN/A
1:00 PM84 °FPassing clouds.8 mph58%30.04 "HgN/A
12:00 PM84 °FPassing clouds.3 mph55%30.01 "HgN/A
11:00 AM86 °FSunny.No wind52%30.01 "Hg10 mi
10:00 AM82 °FSunny.2 mph55%30.01 "Hg10 mi
9:00 AM77 °FSunny.7 mph65%30.01 "Hg10 mi
8:00 AM72 °FClear.3 mph78%30.01 "Hg10 mi
7:00 AM72 °FClear.No wind78%30.01 "Hg10 mi
6:00 AM77 °FClear.3 mph69%30.01 "Hg10 mi
5:00 AM77 °FPassing clouds.3 mph69%30.01 "HgN/A
4:00 AM79 °FPassing clouds.9 mph65%30.01 "HgN/A
3:00 AM79 °FClear.6 mph65%30.01 "Hg10 mi
2:00 AM77 °FClear.6 mph65%30.04 "Hg10 mi
1:00 AM77 °FClear.2 mph65%30.04 "Hg10 mi
12:00 AM75 °FClear.1 mph74%30.04 "Hg10 mi
11:00 PM
Sat, Jul 4
77 °FClear.2 mph69%30.01 "Hg10 mi
10:00 PM77 °FSunny.1 mph74%30.01 "Hg10 mi
Weather by CustomWeather, © 2015

See weather overviewHow to use our weather pages